This is the latest recevied weather packets stored in our database for station/object KC0CAU. If no packets are shown the sender has not sent any weather packets the latest 1 day(s).
| Time | Temp. | Humidity | Pressure | Rain* | Wind** | Luminosity | Snow |
|---|---|---|---|---|---|---|---|
| 1778037333 | 2.22° C | 56% | 1019.7 hPa | 0 mm | 0 m/s | - | - |
| 1778036436 | 2.22° C | 56% | 1019.6 hPa | 0 mm | 0.45 m/s, 11° | - | - |
| 1778035590 | 2.78° C | 56% | 1019.6 hPa | 0 mm | 0.45 m/s, 18° | - | - |
| 1778034635 | 2.78° C | 55% | 1019.4 hPa | 0 mm | 0.89 m/s, 20° | - | - |
| 1778033729 | 2.78° C | 55% | 1019.2 hPa | 0 mm | 0.89 m/s, 360° | - | - |
| 1778032826 | 2.78° C | 54% | 1019 hPa | 0 mm | 0.89 m/s, 29° | - | - |
| 1778031929 | 3.33° C | 53% | 1018.6 hPa | 0 mm | 0.89 m/s, 5° | - | - |
| 1778031023 | 3.89° C | 51% | 1018.6 hPa | 0 mm | 1.34 m/s, 9° | - | - |
| 1778030128 | 3.89° C | 51% | 1018.5 hPa | 0 mm | 1.34 m/s, 325° | - | - |
| 1778029282 | 4.44° C | 50% | 1018.4 hPa | 0 mm | 2.24 m/s, 355° | - | - |
| 1778028319 | 4.44° C | 49% | 1018.5 hPa | 0 mm | 3.58 m/s, 348° | - | - |
| 1778027419 | 5° C | 48% | 1018.3 hPa | 0 mm | 2.68 m/s, 17° | - | - |
| 1778026519 | 5° C | 48% | 1018.3 hPa | 0 mm | 3.13 m/s, 15° | - | - |
| 1778025617 | 5° C | 48% | 1018.3 hPa | 0 mm | 4.02 m/s, 336° | - | - |
| 1778024726 | 5° C | 48% | 1018.3 hPa | 0 mm | 3.13 m/s, 344° | - | - |
| 1778023820 | 5.56° C | 48% | 1018.2 hPa | 0 mm | 2.68 m/s, 331° | - | - |
| 1778022916 | 5.56° C | 47% | 1018.2 hPa | 0 mm | 3.13 m/s, 302° | - | - |
| 1778022030 | 5.56° C | 47% | 1018.1 hPa | 0 mm | 3.13 m/s, 19° | - | - |
| 1778021112 | 5.56° C | 47% | 1017.8 hPa | 0 mm | 4.02 m/s, 327° | - | - |
| 1778020272 | 5.56° C | 49% | 1017.6 hPa | 0 mm | 3.58 m/s, 337° | - | - |
| 1778019311 | 5.56° C | 49% | 1017.6 hPa | 0 mm | 4.02 m/s, 315° | - | - |
| 1778018409 | 5.56° C | 48% | 1017.9 hPa | 0 mm | 4.02 m/s, 5° | - | - |
| 1778017508 | 5.56° C | 49% | 1017.8 hPa | 0 mm | 4.02 m/s, 355° | - | - |
| 1778016608 | 5.56° C | 48% | 1017.8 hPa | 0 mm | 4.47 m/s, 9° | - | - |
| 1778015712 | 5.56° C | 48% | 1017.7 hPa | 0 mm | 4.02 m/s, 342° | - | - |
* Rain latest hour (hover to see other rain measurements)
** Current wind speed in m/s (hover to see current wind gust speed)